Location: Almena City Lake
(39.8850°N, 99.6804°W)
Time: 00:49:14
(UTC+00:00)

H-2A R/B - Pass Details

Date: 18 February 2020
Orbit: 733 x 837 km, 98.2° (Epoch: 05 April)

Event Time Altitude Azimuth Distance (km) Brightness Sun altitude
Exits shadow 01:19:05 13° 115° (ESE) 2,194 3.8 -12.6°
Maximum altitude 01:22:43 25° 65° (ENE) 1,589 3.1 -13.3°
Drops below altitude 10° 01:27:03 10° 12° (NNE) 2,439 4.4 -14.1°
Sets 01:29:47 0° 360° (N) 3,386 5.3 -14.6°
